Location: Mentone
(34.5413°N, 85.5351°W)
Time: 20:14:12
(UTC-05:00)

A-11 Canister half - Visible Passes

Search period start: 29 August 2016 00:00
Search period end: 08 September 2016 00:00
Orbit: 1524 x 1685 km, 47.3° (Epoch: 28 August)

Date Brightness Start Highest point End Pass type
(mag) Time Alt. Az. Time Alt. Az. Time Alt. Az.
29 Aug 9.7 00:22:37 10° NW 00:32:25 50° NNE 00:32:25 50° NNE visible
29 Aug 10.5 02:28:02 10° WNW 02:46:38 16° SE 02:48:13 10° SE visible
29 Aug 10.3 04:45:10 18° SW 04:45:10 18° SW 04:48:48 10° SSW visible
29 Aug 9.5 19:47:03 10° WSW 19:56:46 68° NNW 20:06:50 10° NE visible
29 Aug 10.1 21:54:14 10° WNW 22:03:28 40° N 22:12:37 11° ENE visible
30 Aug 9.7 00:01:00 10° NW 00:10:44 49° NNE 00:10:50 49° NNE visible
30 Aug 10.6 02:06:25 10° NW 02:28:34 - SE 02:09:02 21° WNW visible
30 Aug 10.7 04:27:03 11° SSW 04:27:03 11° SSW 04:27:38 10° S visible
30 Aug 9.5 19:25:25 10° WSW 19:35:08 71° NNW 19:45:12 10° NE visible
30 Aug 10.1 21:32:32 10° WNW 21:41:45 41° N 21:51:11 10° ENE visible
30 Aug 9.7 23:39:21 10° NW 23:49:02 48° NNE 23:49:29 48° NNE visible
31 Aug 10.5 01:44:47 10° NW 01:47:43 22° WNW 01:47:43 22° WNW visible
31 Aug 10.1 21:10:50 10° WNW 21:20:03 41° N 21:29:29 10° ENE visible
31 Aug 9.7 23:17:43 10° NW 23:27:20 47° NNE 23:28:18 46° NNE visible
01 Sep 10.5 01:23:09 10° NW 01:26:32 25° NW 01:26:32 25° NW visible
01 Sep 10.1 20:49:08 10° WNW 20:58:20 41° N 21:07:47 10° ENE visible
01 Sep 9.7 22:56:05 10° NW 23:05:38 46° NNE 23:07:12 43° NE visible
02 Sep 10.4 01:01:33 10° NW 01:05:27 28° NW 01:05:27 28° NW visible
02 Sep 10.1 20:27:26 10° W 20:36:38 42° N 20:46:06 10° ENE visible
02 Sep 9.8 22:34:26 10° NW 22:43:57 45° NNE 22:46:11 40° NE visible
03 Sep 10.2 00:39:55 10° NW 00:44:26 32° NW 00:44:26 32° NW visible
03 Sep 10.1 20:05:45 10° W 20:14:56 43° NNW 20:24:24 10° ENE visible
03 Sep 9.8 22:12:47 10° WNW 22:22:15 44° NNE 22:25:14 36° NE visible
04 Sep 10.1 00:18:18 10° NW 00:23:29 36° NW 00:23:29 36° NW visible
04 Sep 10.0 19:44:03 10° W 19:53:15 43° NNW 20:02:43 10° ENE visible
04 Sep 9.8 21:51:09 10° WNW 22:00:32 43° NNE 22:04:19 33° ENE visible
04 Sep 9.9 23:56:41 10° NW 00:02:35 41° NW 00:02:35 41° NW visible
05 Sep 10.0 19:22:22 10° W 19:31:34 44° NNW 19:41:02 10° ENE visible
05 Sep 9.9 21:29:31 10° WNW 21:38:51 42° NNE 21:43:27 29° ENE visible
05 Sep 9.7 23:35:05 10° NW 23:41:43 48° NW 23:41:43 48° NW visible
06 Sep 9.9 21:07:51 10° WNW 21:17:08 42° N 21:22:37 25° ENE visible
06 Sep 9.5 23:13:29 10° NW 23:20:53 55° NW 23:20:53 55° NW visible
07 Sep 9.9 20:46:13 10° WNW 20:55:26 41° N 21:01:50 21° ENE visible
07 Sep 9.4 22:51:52 10° NW 23:00:06 62° NNW 23:00:06 62° NNW visible
